Regional Weather Roundup
Issued by NWS Goodland, KS

Home | Current Version | Previous Version | Graphics & Text | Print | Product List | Glossary On
Versions: 1 2 3 4 5 6 7 8 9 10 11 12 13 14 15 16 17 18 19 20 21 22 23 24 25 26 27 28 29 30 31 32 33 34 35 36 37 38 39 40 41 42 43 44 45 46 47 48 49 50
000
ASUS43 KGLD 210708
RWRGLD

GOODLAND FORECAST AREA HOURLY WEATHER ROUNDUP
NATIONAL WEATHER SERVICE GOODLAND KS
100 AM MDT THU SEP 21 2017

...OFFICIAL OBSERVATIONS...

CITY           SKY/WX    TMP DP  RH WIND       PRES   REMARKS
GOODLAND KS    CLEAR     50  36  58 S8        29.87F
HILL CITY KS   CLEAR     57  43  59 E6        29.87F
IMPERIAL NEB   CLEAR     53  38  56 SE12      29.85F
MCCOOK NEB     CLEAR     52  41  66 E5        29.86F
AKRON CO       CLEAR     55  33  43 SE13      29.84F
BURLINGTON CO  CLEAR     56  38  50 S17       29.87F
LIMON CO       CLOUDY    48  35  60 CALM      29.91F
$$

...UNOFFICIAL OBSERVATIONS...

CITY           SKY/WX    TMP DP  RH WIND       PRES   REMARKS
LENORA KS        N/A     60  32  34 MISG        N/A
NORTON KS      CLEAR     55  41  58 E7        29.86F
SHARON SPRINGS   N/A     53  41  63 SE8         N/A
TRIBUNE KS     CLEAR     55  41  58 S8        29.90
TRENTON NEB      N/A     55  32  41 SE7         N/A
KIT CARSON CO    N/A     57  38  50 MISG        N/A
YUMA CO        FAIR      46  36  66 SE7       29.84F
$$




USA.gov is the U.S. government's official web portal to all federal, state and local government web resources and services.